#timestamp,LO_Frequency,Hit,StdDev 
1645473615.3,286046995.1,N
1645473635.2,286046993.8,N
1645473655.9,286046997.9,N
1645473675.7,286046993.3,N
1645473695.6,286046999.3,N
1645473715.4,286046998.2,N
1645473735.2,286047002.4,N
1645473755.1,286047007.6,N
1645473756.0,286047007.6,N
1645473775.8,286047010.8,N
1645473795.7,286047008.8,N
1645473815.5,286047003.7,N
1645473835.3,286046998.1,N
1645473855.2,286047002.7,N
1645473875.0,286047001.9,N
1645473875.9,286047001.9,N
1645473895.7,286047006.0,N
1645473915.6,286047006.0,N
1645473935.4,286046999.8,N
1645473955.3,286047003.5,N
1645473975.1,286047001.3,N
1645473976.0,286047001.3,N
1645473995.8,286047007.1,N
1645474015.7,286047008.5,N
1645474035.5,286047010.7,N
1645474055.3,286047012.5,N
1645474075.2,286047012.5,N
1645474095.0,286047015.5,N
1645474095.9,286047015.5,N
1645474115.8,286047013.7,N
1645474135.6,286047010.4,N
1645474155.4,286047007.3,N
1645474175.3,286047009.9,N
1645474195.1,286047008.1,N
1645474215.8,286047006.3,N
1645474235.7,286047005.7,N
1645474255.5,286047000.5,N
1645474275.4,286047005.3,N
1645474295.2,286047006.1,N
1645474315.0,286047008.9,N
1645474315.9,286047008.9,N
1645474335.8,286047005.6,N
1645474355.6,286047006.4,N
1645474375.4,286047003.3,N
1645474395.3,286047003.9,N
1645474415.1,286047001.5,N
1645474435.9,286047008.9,N
1645474455.7,286047012.3,N
1645474475.5,286047013.5,Y
1645474495.4,286047005.3,P
1645474515.2,286047003.3,P
1645474535.0,286047005.1,P
1645474536.0,286047005.1,Y
1645474555.8,286047001.4,P
1645474575.6,286047004.0,N
1645474625.5,286047008.4,E
1645474635.4,286047005.8,N
1645474655.3,286047000.0,P
1645474675.1,286046995.5,N
1645474676.0,286046995.5,N
1645474695.8,286046995.0,N
1645474715.7,286046999.0,N
1645474735.5,286046999.3,N
1645474755.3,286046995.2,N
1645474775.2,286046999.4,N
1645474795.0,286047000.4,N
1645474795.9,286047000.4,N
1645474815.8,286046996.4,N
1645474835.6,286046993.4,N
1645474855.4,286046999.3,N
1645474875.3,286047000.9,N
1645474895.1,286047003.7,N
1645474915.8,286047002.4,N
1645474935.7,286047000.6,N
1645474955.5,286046999.1,N
1645474975.4,286047000.8,N
1645474995.2,286047001.4,N
1645475015.0,286047005.6,N
1645475015.9,286047005.6,N
1645475035.8,286047005.5,N
1645475055.6,286046999.9,N
1645475075.4,286047001.7,N
1645475095.3,286047006.3,N
1645475115.1,286047006.6,N
1645475135.9,286047003.7,N
1645475155.7,286047001.9,N
1645475175.5,286047004.2,N
1645475195.4,286047007.2,N
1645475215.2,286047006.6,N
1645475235.0,286047001.1,N
1645475235.9,286047001.1,N
1645475255.8,286046998.5,N
1645475275.6,286046995.3,N
1645475295.5,286047000.5,N
1645475315.3,286047000.4,N
1645475335.1,286046996.7,N
1645475355.9,286046993.6,N
1645475375.7,286046997.2,N
1645475395.5,286047000.6,N
1645475415.4,286047002.9,N
1645475435.2,286047005.2,N
1645475455.1,286047008.8,N
1645475456.0,286047008.8,N
1645475475.8,286047001.9,N
1645475495.6,286047002.7,N
1645475515.5,286046997.3,N
1645475535.3,286046991.8,N
1645475555.1,286046992.4,N
1645475575.9,286046989.9,N
1645475595.7,286046987.5,N
1645475615.6,286046989.1,N
1645475635.4,286046991.4,N
1645475655.2,286046993.2,N
1645475675.1,286046992.9,N
1645475676.0,286046992.9,N
1645475695.8,286046997.2,N
1645475715.7,286047000.7,N
1645475735.5,286046998.4,N
1645475755.3,286047004.2,N
1645475775.2,286047001.7,N
1645475795.9,286047004.3,N
1645475815.7,286046998.1,N
1645475835.6,286046998.0,N
1645475855.4,286046992.7,N
1645475875.3,286046991.1,N
1645475895.1,286046995.4,N
1645475896.0,286046995.4,N
1645475915.8,286046997.8,N
1645475935.7,286046996.7,N
1645475955.5,286047000.8,N
1645475975.3,286046998.9,N
1645475995.2,286046996.8,N
1645476015.0,286047000.4,N
1645476015.9,286047000.4,N
1645476035.8,286047000.6,N
1645476055.6,286046999.2,N
1645476075.4,286046996.0,N
1645476095.3,286046988.5,N
1645476115.1,286046989.3,N
1645476135.8,286046987.3,N
1645476155.7,286046985.9,Y
1645476175.5,286046990.2,P
1645476195.4,286046991.0,N
1645476215.2,286046992.7,N
1645476235.0,286046991.5,Y
1645476235.9,286046991.5,P
1645476255.8,286046994.8,P
1645476275.6,286046993.3,P
1645476295.5,286046990.2,Y
1645476315.3,286046999.0,P
1645476335.1,286046996.8,N
1645476355.9,286047002.0,N
1645476375.7,286046999.1,N
1645476395.5,286046993.4,N
1645476415.4,286046996.6,N
1645476435.2,286046994.5,N
1645476455.1,286046990.9,Y
1645476456.0,286046990.9,P
1645476475.8,286046991.3,N
1645476495.6,286046985.5,P
1645476515.5,286046989.5,N
1645476535.3,286046994.6,N
1645476555.1,286046998.7,N
1645476575.9,286047001.3,N
1645476595.7,286047006.6,N
1645476615.6,286047010.1,N
1645476635.4,286047016.4,N
1645476655.2,286047020.7,N
1645476675.1,286047021.0,N
1645476676.0,286047021.0,N
1645476695.8,286047021.4,N
1645476715.6,286047019.4,N
1645476735.5,286047018.6,N
1645476755.3,286047013.6,N
1645476775.2,286047008.5,N
1645476795.9,286047015.1,N
1645476815.7,286047015.5,N
1645476835.6,286047016.3,N
1645476855.4,286047012.5,N
1645476875.2,286047009.8,N
1645476895.1,286047010.4,N
1645476896.0,286047010.4,N
1645476915.8,286047003.4,N
1645476935.7,286047003.9,N
1645476955.5,286047001.1,N
1645476975.3,286047002.7,N
1645476995.2,286047003.1,N
1645477015.9,286047006.7,N
1645477035.7,286047010.7,N
1645477055.6,286047011.2,N
1645477075.4,286047007.9,N
1645477095.3,286047005.0,N
1645477115.1,286047007.7,N
1645477116.0,286047007.7,N
1645477135.8,286047008.8,N
1645477155.7,286047006.3,N
1645477205.5,286047000.7,E
